Date,TemperatureHighF,TemperatureAvgF,TemperatureLowF,DewpointHighF,DewpointAvgF,DewpointLowF,HumidityHigh,HumidityAvg,HumidityLow,PressureMaxIn,PressureMinIn,WindSpeedMaxMPH,WindSpeedAvgMPH,GustSpeedMaxMPH,PrecipitationSumIn
2014-1-1,29.4,23.3,16.6,15.0,10.3,6.0,75,58,43,30.38,30.20,14,2,0,0.00
2014-1-2,28.7,23.7,11.4,26.0,20.1,8.0,89,86,68,30.33,29.73,15,5,0,0.17
2014-1-3,14.1,7.5,-1.4,10.0,2.9,-8.0,86,81,74,30.41,29.59,20,-3,0,0.00
2014-1-4,27.3,13.8,-3.4,22.0,8.5,-9.0,84,79,72,30.52,30.29,20,3,0,0.00
2014-1-5,45.7,30.8,19.7,44.0,27.3,16.0,93,87,77,30.33,29.91,13,1,0,0.12
2014-1-6,59.0,46.8,28.5,57.0,43.5,18.0,94,88,62,29.89,29.31,22,6,0,0.40
2014-1-7,28.3,14.8,7.9,21.0,0.0,-7.0,81,53,41,30.26,29.51,17,6,0,0.00
2014-1-8,23.1,13.7,6.0,4.0,-1.0,-99.9,67,55,42,30.49,30.26,10,2,0,0.00
2014-1-9,29.5,19.7,13.8,12.0,8.6,5.0,77,63,43,30.64,30.44,14,1,0,0.01
2014-1-10,35.2,26.5,12.7,33.0,23.2,8.0,91,87,77,30.60,30.26,1,0,0,0.07
2014-1-11,59.6,51.5,35.2,57.0,49.2,33.0,93,91,85,30.25,29.32,19,6,0,0.80
2014-1-12,50.3,43.1,34.2,48.0,33.3,23.0,93,70,55,29.97,29.33,17,6,0,0.17
2014-1-13,50.4,40.3,30.2,45.0,32.7,23.0,85,75,55,30.14,29.92,13,3,0,0.00
2014-1-14,49.9,48.1,43.4,47.0,44.7,41.0,92,88,82,29.91,29.59,17,4,0,0.80
2014-1-15,47.2,39.9,33.1,41.0,35.9,31.0,92,86,71,30.02,29.76,10,1,0,0.01
2014-1-16,40.0,37.2,34.0,38.0,35.1,32.0,93,92,90,29.92,29.82,5,0,0,0.00
2014-1-17,43.5,37.0,31.7,37.0,31.4,27.0,93,81,58,29.99,29.90,14,2,0,0.00
2014-1-18,36.3,33.7,30.9,34.0,31.5,28.0,92,91,87,29.91,29.59,7,1,0,0.67
2014-1-19,35.6,32.4,29.2,31.0,26.0,23.0,92,78,61,29.72,29.57,16,5,0,0.01
2014-1-20,44.9,36.6,29.2,28.0,24.1,12.0,72,61,48,29.83,29.50,17,5,0,0.00
2014-1-21,29.0,18.0,12.3,12.0,6.9,0.0,85,64,43,30.02,29.79,15,4,0,0.07
2014-1-22,17.2,11.2,4.4,9.0,3.2,-7.0,85,72,48,29.88,29.59,18,6,0,0.00
2014-1-23,21.3,10.7,0.4,1.0,-4.4,-99.9,69,53,40,30.17,29.88,10,2,0,0.00
2014-1-24,17.9,11.3,5.3,5.0,-2.9,-6.0,65,54,39,30.27,30.08,14,3,0,0.00
2014-1-25,39.1,29.8,15.9,29.0,19.8,-99.9,84,69,60,30.07,29.34,29,7,0,0.01
2014-1-26,26.0,20.1,16.0,19.0,7.6,-1.0,77,60,40,29.89,29.36,19,-6,0,0.00
2014-1-27,47.9,35.5,22.2,40.0,24.3,0.0,89,66,32,29.99,29.55,28,5,0,0.00
2014-1-28,21.8,17.5,12.7,2.0,-5.1,-10.0,44,37,27,30.29,29.99,17,4,0,0.00
2014-1-29,25.0,18.1,14.0,12.0,4.6,-3.0,83,58,37,30.22,29.98,10,2,0,0.05
2014-1-30,21.0,14.3,10.1,13.0,3.4,-3.0,82,63,48,30.42,30.21,5,1,0,0.00
2014-1-31,41.3,31.3,16.8,26.0,18.9,12.0,88,63,35,30.20,30.03,9,1,0,0.00
2014-2-1,44.0,36.6,32.8,31.0,23.8,21.0,86,61,41,30.34,30.02,10,1,0,0.00
2014-2-2,51.3,42.2,33.3,42.0,36.3,30.0,91,80,66,30.04,29.87,8,1,0,0.00
2014-2-3,41.5,33.8,26.5,33.0,29.3,24.0,91,84,72,30.27,30.04,10,2,0,0.25
2014-2-4,33.9,26.6,18.4,24.0,20.9,16.0,90,79,59,30.45,30.26,5,0,0,0.00
2014-2-5,33.7,29.6,25.5,31.0,27.0,23.0,91,90,87,30.31,29.58,12,3,0,0.84
2014-2-6,29.9,23.3,18.9,23.0,15.8,10.0,95,74,55,30.24,29.91,10,2,0,0.01
2014-2-7,31.1,22.6,13.7,16.0,11.0,7.0,77,63,41,30.27,30.16,11,2,0,0.00
2014-2-8,30.8,23.3,13.2,16.0,8.0,2.0,82,55,33,30.30,30.10,6,1,0,0.00
2014-2-9,31.9,26.9,21.5,23.0,16.4,6.0,85,65,45,30.13,29.94,8,-30,0,0.02
2014-2-10,28.7,23.1,15.4,22.0,12.5,5.0,87,66,45,30.20,29.90,13,3,0,0.00
2014-2-11,24.8,17.4,10.1,8.0,4.3,2.0,79,58,41,30.41,30.20,12,2,0,0.00
2014-2-12,26.8,16.3,4.1,14.0,3.1,-99.9,78,59,41,30.55,30.38,7,-10,0,0.00
2014-2-13,39.0,33.3,19.3,37.0,30.5,14.0,91,89,78,30.38,28.96,20,7,0,1.39
2014-2-14,38.1,34.3,29.5,34.0,27.6,23.0,92,77,62,29.74,28.81,24,6,0,0.15
2014-2-15,36.2,30.7,26.1,30.0,25.8,22.0,91,82,63,29.84,29.41,14,4,0,0.28
2014-2-16,31.7,26.8,20.8,27.0,16.1,11.0,91,66,46,29.96,29.42,18,6,0,0.00
2014-2-17,30.3,21.7,13.9,11.0,-0.1,-5.0,60,40,24,30.35,29.96,21,5,0,0.00
2014-2-18,36.8,23.5,9.2,34.0,16.8,-4.0,90,76,43,30.35,29.83,14,-8,0,0.27
2014-2-19,40.3,31.0,19.2,34.0,26.5,16.0,91,84,67,30.09,29.68,7,2,0,0.41
2014-2-20,48.4,38.8,31.4,34.0,28.5,23.0,92,69,37,30.20,29.85,8,-61,0,0.11
2014-2-21,52.4,40.2,33.9,51.0,38.0,31.0,93,91,88,30.14,29.68,21,-363,0,0.16
2014-2-22,50.5,41.2,33.2,37.0,30.8,26.0,92,69,42,29.99,29.85,17,-193,0,0.01
2014-2-23,52.3,43.2,36.7,35.0,31.6,29.0,82,65,46,30.00,29.77,7,1,0,0.00
2014-2-24,40.9,33.9,23.9,32.0,15.8,6.0,73,48,36,29.95,29.73,15,5,0,0.00
2014-2-25,29.1,23.4,18.2,12.0,9.1,7.0,67,55,44,30.00,29.86,12,3,0,0.00
2014-2-26,30.9,22.3,14.6,16.0,6.9,-6.0,71,53,32,29.95,29.75,10,2,0,0.00
2014-2-27,29.8,19.8,7.1,24.0,6.0,-6.0,84,56,35,29.91,29.58,17,3,0,0.00
2014-2-28,24.7,16.9,9.1,-3.0,-6.2,-10.0,53,37,23,30.43,29.93,21,4,0,0.00
2014-3-1,34.4,24.7,7.7,28.0,12.8,-7.0,79,62,38,30.44,30.11,13,2,0,0.00
2014-3-2,36.7,33.8,30.9,26.0,24.2,21.0,75,68,58,30.10,29.95,10,1,0,0.00
2014-3-3,31.4,22.9,14.4,22.0,7.5,-3.0,74,53,40,30.28,29.95,15,4,0,0.00
2014-3-4,30.0,20.6,8.5,14.0,2.4,-4.0,62,47,26,30.37,30.24,8,1,0,0.00
2014-3-5,32.5,25.9,19.4,21.0,16.4,11.0,79,68,54,30.45,30.22,14,3,0,0.00
2014-3-6,29.2,20.4,12.0,13.0,7.5,0.0,78,59,44,30.61,30.45,12,3,0,0.00
2014-3-7,38.9,26.1,9.9,27.0,18.0,6.0,84,72,54,30.50,29.93,6,1,0,0.00
2014-3-8,55.9,40.4,26.9,30.0,24.8,-99.9,87,59,30,29.92,29.67,12,2,0,0.00
2014-3-9,41.8,35.8,30.8,26.0,15.2,11.0,64,44,32,29.92,29.84,14,-170,0,0.00
2014-3-10,44.1,35.3,29.9,31.0,24.7,11.0,83,67,44,29.89,29.64,11,-371,0,0.02
2014-3-11,59.7,46.4,35.2,37.0,32.1,27.0,89,62,32,29.71,29.51,12,3,0,0.00
2014-3-12,58.4,49.2,40.4,51.0,39.1,28.0,91,70,41,29.71,28.94,13,3,0,0.55
2014-3-13,49.9,24.0,17.4,47.0,15.6,0.0,90,72,44,29.94,28.95,27,8,0,0.05
2014-3-14,38.6,26.5,11.3,32.0,13.6,0.0,76,59,42,30.19,29.95,19,4,0,0.00
2014-3-15,57.9,44.6,37.8,40.0,34.2,28.0,87,68,34,29.94,29.66,21,5,0,0.01
2014-3-16,39.4,32.5,28.0,29.0,11.4,4.0,70,42,28,30.18,29.89,23,5,0,0.00
2014-3-17,30.2,24.3,18.4,12.0,4.0,-5.0,69,43,35,30.16,30.03,15,4,0,0.00
2014-3-18,40.3,27.4,14.8,20.0,14.2,5.0,79,59,34,30.33,30.15,8,-9,0,0.00
2014-3-19,46.5,33.5,20.6,30.0,21.7,16.0,85,65,36,30.37,29.96,11,2,0,0.00
2014-3-20,53.8,45.1,35.5,45.0,36.1,28.0,91,73,46,29.99,29.61,16,4,0,0.43
2014-3-21,46.0,38.4,30.8,29.0,23.4,20.0,70,56,41,30.04,29.76,22,6,0,0.00
2014-3-22,59.0,41.4,25.8,41.0,26.9,18.0,81,59,36,30.06,29.65,20,5,0,0.00
2014-3-23,44.6,36.3,28.5,27.0,17.2,5.0,75,49,24,30.02,29.88,13,4,0,0.00
2014-3-24,33.0,25.0,16.4,7.0,0.5,-2.0,48,35,24,30.16,30.02,18,5,0,0.00
2014-3-25,36.7,27.8,17.3,16.0,10.1,3.0,66,49,32,30.15,29.87,10,1,0,0.00
2014-3-26,35.6,30.1,25.5,23.0,13.2,-1.0,86,52,29,30.00,29.54,26,13,0,0.00
2014-3-27,42.6,30.9,20.3,26.0,8.1,-2.0,70,40,20,30.31,30.00,17,-109,0,0.00
2014-3-28,55.8,45.2,35.3,45.0,38.2,26.0,89,77,66,30.27,29.97,21,-310,0,0.08
2014-3-29,53.4,44.9,40.3,45.0,40.8,38.0,92,86,67,30.21,29.92,14,4,0,0.89
2014-3-30,54.6,42.0,35.8,53.0,39.9,33.0,93,92,90,29.91,29.56,24,7,0,3.45
2014-3-31,37.7,35.7,33.8,35.0,33.0,31.0,91,89,77,29.96,29.66,18,8,0,0.20
2014-4-1,50.0,41.3,33.7,33.0,30.1,27.0,77,66,49,30.10,29.96,15,5,0,0.00
2014-4-2,53.2,42.1,30.8,34.0,29.4,24.0,87,64,38,30.12,30.02,11,2,0,0.00
2014-4-3,59.2,45.0,34.9,34.0,28.9,19.0,89,59,25,30.10,30.00,11,-106,0,0.00
2014-4-4,51.2,41.8,35.2,35.0,30.9,27.0,86,67,45,30.14,29.86,13,-309,0,0.14
2014-4-5,53.3,44.3,38.0,43.0,34.8,24.0,92,72,45,29.94,29.66,14,6,0,0.14
2014-4-6,57.5,43.1,30.1,31.0,25.1,18.0,75,52,22,30.18,29.95,11,2,0,0.00
2014-4-7,59.3,47.0,35.5,44.0,31.1,20.0,88,57,26,30.22,29.88,11,-62,0,0.10
2014-4-8,56.0,51.2,47.1,54.0,47.6,36.0,93,88,64,29.85,29.35,16,5,0,0.62
2014-4-9,60.7,49.4,39.7,38.0,29.4,9.0,78,50,25,29.95,29.51,14,5,0,0.00
2014-4-10,53.0,44.0,32.2,40.0,23.7,10.0,77,47,26,30.17,29.96,15,4,0,0.00
2014-4-11,66.3,54.6,46.4,47.0,43.2,39.0,80,67,47,30.04,29.91,21,4,0,0.00
2014-4-12,68.9,56.4,47.4,46.0,37.6,27.0,85,55,23,30.20,29.95,12,3,0,0.00
2014-4-13,64.9,53.7,43.8,52.0,41.5,28.0,87,66,29,30.23,30.04,19,4,0,0.00
2014-4-14,68.5,58.7,53.3,56.0,52.2,50.0,88,80,63,30.06,29.94,19,8,0,0.00
2014-4-15,67.7,59.0,44.6,58.0,54.9,42.0,91,86,71,29.95,29.58,25,10,0,1.47
2014-4-16,45.5,38.5,31.7,41.0,25.5,18.0,90,62,35,30.58,29.70,17,6,0,0.59
2014-4-17,42.7,36.2,30.1,28.0,24.7,19.0,78,64,52,30.76,30.58,19,6,0,0.00
2014-4-18,47.4,39.2,29.2,35.0,31.2,25.0,87,74,58,30.63,30.24,9,2,0,0.00
2014-4-19,63.2,50.5,37.0,38.0,32.9,26.0,87,56,27,30.38,30.16,15,4,0,0.00
2014-4-20,54.7,45.8,34.8,33.0,26.3,17.0,78,49,23,30.49,30.33,11,-81,0,0.00
2014-4-21,62.5,47.5,30.4,42.0,35.3,25.0,90,66,27,30.33,29.87,13,2,0,0.00
2014-4-22,66.9,53.8,43.8,50.0,45.0,40.0,88,74,42,29.86,29.48,20,4,0,0.05
2014-4-23,53.7,49.9,47.3,51.0,43.4,33.0,92,79,56,29.60,29.40,21,5,0,0.68
2014-4-24,58.7,49.5,41.6,33.0,25.9,19.0,60,41,28,29.90,29.60,28,10,0,0.00
2014-4-25,61.1,49.7,40.4,37.0,30.2,24.0,72,49,26,30.00,29.84,6,-736,0,0.00
2014-4-26,46.4,44.4,41.9,43.0,39.7,35.0,90,83,72,29.86,29.75,0,-999,0,0.27
2014-4-27,49.3,44.8,41.9,42.0,40.3,38.0,91,84,72,30.03,29.83,7,-862,0,0.05
2014-4-28,56.9,48.2,39.4,41.0,37.8,34.0,82,69,51,30.19,29.97,13,-685,0,0.00
2014-4-29,45.6,43.4,41.6,38.0,36.0,34.0,83,75,67,30.50,30.20,0,-999,0,0.00
2014-4-30,47.7,43.3,40.6,43.0,38.8,34.0,91,84,75,30.51,30.14,0,-999,0,0.55
2014-5-1,64.5,56.2,45.5,60.0,53.4,43.0,93,90,82,30.13,29.66,6,-859,0,1.24
2014-5-2,67.9,57.3,50.0,51.0,44.8,40.0,92,66,38,29.79,29.65,12,-466,0,0.00
2014-5-3,67.6,56.6,44.8,46.0,41.5,39.0,85,59,39,29.86,29.72,13,3,0,0.00
2014-5-4,63.9,56.0,48.5,47.0,39.5,34.0,85,57,36,29.71,29.52,25,7,0,0.00
2014-5-5,64.7,56.3,48.9,45.0,40.6,38.0,70,57,42,29.84,29.61,16,6,0,0.00
2014-5-6,63.2,54.4,43.3,41.0,35.4,30.0,81,51,32,30.02,29.82,20,3,0,0.00
2014-5-7,66.4,53.6,41.9,39.0,33.8,28.0,67,49,28,30.17,30.02,17,2,0,0.00
2014-5-8,63.6,55.0,44.1,55.0,45.9,36.0,88,72,51,30.18,30.08,8,1,0,0.00
2014-5-9,61.2,56.8,52.9,57.0,51.5,45.0,91,83,58,30.22,30.06,7,1,0,0.02
2014-5-10,76.1,66.8,59.8,63.0,59.6,56.0,91,78,62,30.06,29.77,14,4,0,0.01
2014-5-11,78.8,67.8,56.0,58.0,44.0,30.0,88,49,17,30.01,29.78,11,2,0,0.07
2014-5-12,80.4,67.9,55.0,56.0,45.5,36.0,79,47,22,30.10,29.98,12,2,0,0.00
2014-5-13,61.3,53.2,46.2,56.0,42.0,37.0,82,67,54,30.30,30.01,14,5,0,0.00
2014-5-14,69.7,56.4,43.2,54.0,47.0,39.0,87,72,45,30.32,30.25,9,1,0,0.00
2014-5-15,73.3,65.5,56.7,64.0,59.7,53.0,91,82,70,30.29,30.19,12,2,0,0.00
2014-5-16,71.7,66.0,62.6,62.0,61.0,59.0,90,84,71,30.19,29.96,18,4,0,0.06
2014-5-17,74.3,65.5,53.0,63.0,55.6,46.0,92,73,44,30.04,29.83,16,3,0,0.54
2014-5-18,67.8,57.1,46.1,50.0,44.6,38.0,80,64,42,30.09,30.00,7,1,0,0.00
2014-5-19,65.8,57.2,49.0,46.0,38.6,36.0,81,51,36,30.08,29.99,11,3,0,0.00
2014-5-20,73.3,59.2,47.4,51.0,45.3,42.0,87,63,35,30.02,29.93,12,2,0,0.01
2014-5-21,72.9,59.0,44.4,55.0,48.6,41.0,91,71,46,29.98,29.90,9,1,0,0.00
2014-5-22,64.9,56.9,51.8,56.0,52.0,48.0,90,84,65,29.95,29.84,6,0,0,0.17
2014-5-23,64.8,58.3,52.6,57.0,53.2,48.0,92,83,69,29.95,29.86,6,1,0,0.03
2014-5-24,66.3,57.8,51.4,53.0,49.2,47.0,88,74,54,30.04,29.91,11,2,0,0.00
2014-5-25,71.0,58.0,47.8,59.0,51.6,45.0,91,80,62,30.07,30.00,12,1,0,0.00
2014-5-26,74.6,63.0,53.1,61.0,55.6,51.0,92,78,56,30.02,29.80,10,2,0,0.01
2014-5-27,77.4,64.0,50.9,62.0,55.7,48.0,90,75,51,29.90,29.78,11,2,0,0.00
2014-5-28,51.2,49.5,45.7,49.0,46.5,42.0,92,89,86,30.19,29.84,15,6,0,0.02
2014-5-29,66.0,52.8,38.7,48.0,42.1,36.0,91,70,42,30.22,30.13,10,1,0,0.00
2014-5-30,70.0,55.3,43.5,56.0,46.5,40.0,91,74,54,30.15,29.99,11,1,0,0.17
2014-5-31,64.1,56.1,47.4,51.0,45.8,33.0,91,71,33,30.26,30.02,16,4,0,0.00
2014-6-1,74.9,60.7,43.6,50.0,44.7,38.0,86,59,30,30.31,30.23,8,1,0,0.00
2014-6-2,79.0,64.4,50.8,57.0,50.9,44.0,90,64,36,30.24,30.01,10,2,0,0.00
2014-6-3,79.4,64.8,52.6,63.0,53.7,43.0,90,69,51,30.02,29.88,12,1,0,0.00
2014-6-4,69.0,60.9,55.2,61.0,55.4,47.0,90,82,71,29.88,29.76,3,0,0,0.28
2014-6-5,62.2,60.2,56.0,60.0,57.8,54.0,92,91,89,29.77,29.60,14,2,0,0.68
2014-6-6,74.5,64.0,55.1,60.0,54.9,53.0,93,74,50,29.86,29.69,13,2,0,0.00
2014-6-7,81.8,68.7,55.7,62.0,56.6,51.0,86,67,43,29.93,29.85,7,1,0,0.00
2014-6-8,83.8,72.0,59.0,64.0,57.6,55.0,87,63,39,29.92,29.84,11,1,0,0.00
2014-6-9,75.1,67.2,59.3,62.0,58.1,54.0,87,73,58,29.98,29.89,6,1,0,0.01
2014-6-10,74.5,66.8,59.9,68.0,62.9,56.0,91,87,78,30.07,29.92,12,2,0,0.01
2014-6-11,71.7,63.6,57.3,56.0,54.2,52.0,88,73,55,30.15,30.06,7,2,0,0.00
2014-6-12,71.0,63.4,54.6,63.0,57.7,51.0,89,82,71,30.14,30.04,7,2,0,0.00
2014-6-13,70.4,66.0,61.9,68.0,63.3,57.0,93,91,84,30.04,29.75,6,1,0,0.49
2014-6-14,75.9,67.6,59.6,68.0,62.0,51.0,93,83,67,29.90,29.78,5,1,0,0.02
2014-6-15,78.4,66.6,53.4,60.0,54.7,49.0,88,67,49,30.03,29.89,9,2,0,0.00
2014-6-16,78.1,66.6,55.2,57.0,51.5,48.0,78,60,37,30.13,30.03,10,1,0,0.00
2014-6-17,76.4,68.6,62.0,69.0,62.2,54.0,90,80,73,30.07,29.88,16,2,0,0.00
2014-6-18,85.6,75.6,65.1,71.0,65.3,62.0,92,72,52,29.92,29.74,13,3,0,0.00
2014-6-19,80.3,71.0,61.8,68.0,61.8,44.0,90,74,50,29.96,29.87,4,1,0,0.04
2014-6-20,76.7,65.5,53.4,53.0,46.9,42.0,79,53,29,29.96,29.85,11,2,0,0.00
2014-6-21,75.6,63.0,50.0,54.0,48.7,43.0,82,61,37,29.97,29.86,6,1,0,0.00
2014-6-22,75.6,64.1,51.5,55.0,50.7,47.0,86,64,40,30.02,29.91,5,0,0,0.00
2014-6-23,78.6,65.4,52.0,61.0,53.0,49.0,92,67,41,30.16,30.02,7,1,0,0.00
2014-6-24,78.2,67.1,54.6,62.0,57.7,50.0,90,73,54,30.17,30.03,12,2,0,0.00
2014-6-25,82.3,72.7,64.4,71.0,66.5,60.0,89,81,69,30.02,29.86,13,3,0,0.00
2014-6-26,83.0,71.0,60.6,74.0,66.1,56.0,92,85,66,29.98,29.77,11,3,0,0.29
2014-6-27,76.4,66.2,56.2,59.0,49.6,41.0,91,59,30,30.19,29.98,14,3,0,0.00
2014-6-28,83.2,68.0,53.3,62.0,54.4,43.0,90,64,31,30.26,30.18,6,1,0,0.00
2014-6-29,83.3,69.2,57.2,63.0,57.1,50.0,92,69,33,30.25,30.11,6,1,0,0.00
2014-6-30,83.4,72.1,62.7,68.0,64.0,60.0,92,77,53,30.11,29.93,15,2,0,0.00
2014-7-1,84.4,74.4,67.3,73.0,68.2,64.0,92,81,66,29.95,29.82,13,3,0,0.00
2014-7-2,85.2,76.1,69.9,75.0,70.4,66.0,91,82,69,29.94,29.82,14,3,0,0.00
2014-7-3,88.2,78.6,72.4,75.0,71.8,67.0,92,80,61,29.99,29.89,10,2,0,0.00
2014-7-4,77.8,68.7,62.4,72.0,65.5,60.0,92,89,83,29.97,29.74,15,3,0,2.74
2014-7-5,78.5,68.5,58.2,61.0,54.3,48.0,92,64,37,30.01,29.74,14,4,0,0.07
2014-7-6,82.9,71.9,61.2,62.0,57.6,52.0,80,62,39,30.01,29.87,12,3,0,0.00
2014-7-7,80.4,72.5,66.3,71.0,65.9,61.0,87,80,67,29.90,29.72,17,4,0,0.00
2014-7-8,86.7,76.1,70.2,75.0,69.1,66.0,88,79,64,29.83,29.71,12,3,0,0.00
2014-7-9,71.8,71.6,71.3,68.0,67.9,67.0,88,88,87,29.71,29.68,16,7,0,0.00
2014-7-10,68.4,67.5,66.8,61.0,60.2,60.0,79,77,76,30.12,30.12,0,0,0,0.01
2014-7-11,82.2,71.1,62.7,65.0,61.3,58.0,90,72,50,30.20,30.11,5,0,0,0.00
2014-7-12,83.0,71.5,60.0,66.0,61.0,57.0,89,71,51,30.21,30.12,13,1,0,0.00
2014-7-13,79.9,72.6,66.1,69.0,65.2,59.0,91,78,51,30.13,29.92,22,4,0,0.00
2014-7-14,82.7,74.5,70.1,75.0,70.0,66.0,92,86,74,29.92,29.85,15,2,0,0.08
2014-7-15,77.5,74.0,72.0,73.0,71.5,70.0,93,91,87,29.87,29.77,11,2,0,0.06
2014-7-16,73.9,71.9,69.8,72.0,69.8,67.0,93,92,91,29.84,29.74,9,1,0,1.88
2014-7-17,80.3,71.4,64.0,67.0,62.6,59.0,92,75,52,30.05,29.83,7,1,0,0.01
2014-7-18,79.8,69.7,59.8,65.0,60.2,56.0,88,73,49,30.22,30.05,5,0,0,0.00
2014-7-19,76.7,68.1,60.2,66.0,60.2,57.0,92,77,59,30.25,30.20,4,0,0,0.00
2014-7-20,74.0,67.3,61.8,64.0,60.4,57.0,89,79,64,30.20,30.11,7,1,0,0.21
2014-7-21,78.0,68.3,60.9,66.0,61.1,58.0,92,79,57,30.18,30.12,6,1,0,0.04
2014-7-22,85.8,73.4,62.0,74.0,66.2,59.0,92,79,62,30.15,30.00,9,2,0,0.00
2014-7-23,83.8,74.6,68.8,74.0,67.7,63.0,85,79,71,30.00,29.76,15,3,0,0.01
2014-7-24,76.7,70.9,64.2,71.0,64.9,60.0,92,81,67,29.88,29.73,10,2,0,0.01
2014-7-25,79.4,69.2,58.5,63.0,58.4,53.0,89,70,46,29.98,29.87,6,1,0,0.00
2014-7-26,80.0,70.1,62.4,70.0,63.3,59.0,91,79,62,29.98,29.89,13,2,0,0.00
2014-7-27,75.5,71.1,66.5,70.0,67.1,63.0,90,87,77,29.89,29.67,12,2,0,0.09
2014-7-28,80.3,74.2,68.7,73.0,69.2,65.0,92,85,73,29.68,29.45,12,2,0,0.11
2014-7-29,77.7,68.7,61.2,65.0,60.6,55.0,90,76,60,29.93,29.55,9,1,0,0.00
2014-7-30,77.8,68.0,57.7,61.0,57.1,53.0,89,70,44,30.03,29.92,6,1,0,0.00
2014-7-31,79.3,69.6,59.6,66.0,60.9,56.0,92,75,54,30.16,30.03,14,2,0,0.00
2014-8-1,81.1,72.4,64.9,73.0,66.0,61.0,90,80,70,30.21,30.15,9,1,0,0.00
2014-8-2,69.1,65.0,61.4,66.0,61.9,58.0,92,89,84,30.21,30.09,9,1,0,0.37
2014-8-3,70.3,65.4,61.6,66.0,62.1,59.0,93,89,84,30.13,30.03,4,0,0,0.03
2014-8-4,81.2,71.1,65.2,71.0,66.2,62.0,92,84,69,30.04,29.98,9,1,0,0.01
2014-8-5,84.3,74.5,66.5,71.0,67.1,64.0,93,79,58,30.02,29.87,8,1,0,0.00
2014-8-6,80.4,70.3,62.2,69.0,65.0,59.0,91,84,61,29.87,29.76,6,0,0,0.50
2014-8-7,79.0,66.6,57.3,63.0,57.5,53.0,88,74,51,29.93,29.82,5,0,0,0.01
2014-8-8,80.5,67.2,55.3,63.0,57.0,52.0,90,72,43,30.00,29.92,6,1,0,0.01
2014-8-9,81.5,70.2,58.9,66.0,59.4,54.0,87,70,45,30.07,29.99,3,0,0,0.00
2014-8-10,83.8,71.4,60.1,65.0,60.3,56.0,90,70,39,30.12,30.06,3,0,0,0.00
2014-8-11,80.7,70.1,61.4,64.0,60.1,57.0,92,72,48,30.14,30.10,11,1,0,0.00
2014-8-12,78.7,70.6,61.9,68.0,62.9,59.0,93,78,57,30.11,29.99,10,1,0,0.00
2014-8-13,71.7,69.1,65.7,69.0,65.9,63.0,92,89,78,29.98,29.59,12,2,0,0.66
2014-8-14,75.3,66.0,58.9,63.0,56.6,50.0,93,73,48,29.86,29.65,7,1,0,0.01
2014-8-15,73.7,63.8,57.7,60.0,55.4,52.0,91,75,51,29.93,29.80,12,1,0,0.00
2014-8-16,75.5,65.7,55.5,61.0,56.8,52.0,87,74,50,29.98,29.90,7,1,0,0.00
2014-8-17,77.0,69.6,63.0,67.0,61.9,55.0,91,77,62,29.90,29.75,5,0,0,0.01
2014-8-18,77.2,65.9,55.6,61.0,55.1,51.0,89,70,47,29.86,29.76,6,1,0,0.00
2014-8-19,78.6,65.1,51.8,59.0,53.5,47.0,88,68,42,29.94,29.85,5,0,0,0.00
2014-8-20,79.4,67.0,55.0,63.0,56.5,52.0,92,72,43,30.03,29.94,6,0,0,0.00
2014-8-21,79.3,67.2,55.6,66.0,59.9,53.0,92,79,56,30.08,30.01,5,0,0,0.00
2014-8-22,73.0,67.2,63.5,66.0,61.8,60.0,92,83,69,30.07,30.03,10,2,0,0.06
2014-8-23,73.2,65.7,56.3,61.0,57.4,51.0,91,75,57,30.11,30.04,11,2,0,0.00
2014-8-24,77.9,65.9,54.8,58.0,55.1,51.0,90,70,45,30.12,30.09,9,1,0,0.00
2014-8-25,87.3,71.4,58.9,67.0,60.5,55.0,90,71,40,30.14,30.07,7,1,0,0.00
2014-8-26,83.7,70.0,59.7,66.0,61.1,57.0,92,75,51,30.16,30.05,8,1,0,0.00
2014-8-27,84.0,72.3,61.8,70.0,64.1,59.0,90,76,58,30.05,29.83,13,2,0,0.00
2014-8-28,81.0,71.9,62.8,64.0,58.2,50.0,87,64,43,29.96,29.76,11,2,0,0.00
2014-8-29,74.6,63.5,53.6,57.0,52.6,49.0,86,69,49,30.26,29.97,8,1,0,0.00
2014-8-30,74.9,64.2,52.9,61.0,57.0,50.0,92,78,54,30.30,30.14,11,1,0,0.00
2014-8-31,81.2,73.6,64.2,73.0,68.2,60.0,91,83,72,30.14,29.94,11,3,0,0.13
2014-9-1,84.9,76.8,71.5,74.0,71.3,69.0,93,83,67,29.97,29.89,6,1,0,0.01
2014-9-2,88.8,77.3,70.0,76.0,71.0,67.0,93,81,61,29.92,29.74,11,2,0,0.00
2014-9-3,84.1,74.4,64.3,70.0,62.1,56.0,89,67,40,30.07,29.70,9,2,0,0.00
2014-9-4,85.5,71.3,59.3,66.0,58.6,54.0,89,67,34,30.18,30.06,9,1,0,0.00
2014-9-5,84.7,74.0,65.6,71.0,67.4,63.0,92,81,53,30.16,29.98,13,2,0,0.00
2014-9-6,86.2,77.2,72.4,76.0,72.3,69.0,90,85,71,29.98,29.76,10,2,0,0.01
2014-9-7,77.5,68.4,58.7,69.0,58.1,50.0,92,72,39,30.18,29.88,12,2,0,0.26
2014-9-8,73.8,63.2,53.7,62.0,54.0,50.0,92,74,48,30.34,30.19,13,2,0,0.01
2014-9-9,72.0,63.1,55.9,60.0,55.8,52.0,89,77,61,30.32,30.15,7,2,0,0.00
2014-9-10,71.9,64.5,58.9,62.0,58.8,56.0,92,82,68,30.15,30.02,10,1,0,0.00
2014-9-11,77.7,68.2,59.1,67.0,63.1,56.0,92,84,67,30.02,29.79,13,2,0,0.00
2014-9-12,73.6,63.6,53.7,65.0,53.3,49.0,90,71,49,30.20,29.88,7,1,0,0.00
2014-9-13,70.2,59.5,49.0,57.0,52.5,45.0,90,79,58,30.24,30.08,7,1,0,0.15
2014-9-14,68.5,58.0,49.5,56.0,49.0,44.0,91,74,44,30.20,30.08,9,1,0,0.01
2014-9-15,67.1,55.8,45.7,52.0,46.7,42.0,88,73,48,30.22,30.08,5,0,0,0.00
2014-9-16,70.5,58.4,48.9,57.0,51.8,46.0,90,79,57,30.09,29.93,9,0,0,0.00
2014-9-17,72.3,59.4,48.6,54.0,48.9,45.0,92,71,39,30.01,29.91,8,1,0,0.01
2014-9-18,75.4,61.3,46.6,54.0,48.8,42.0,89,66,40,30.10,29.92,11,1,0,0.00
2014-9-19,60.7,52.3,42.3,49.0,39.4,36.0,82,63,45,30.42,30.11,13,2,0,0.00
2014-9-20,70.3,55.6,37.7,57.0,47.9,35.0,91,76,60,30.39,30.09,10,1,0,0.00
2014-9-21,78.3,70.1,60.1,70.0,65.7,57.0,91,86,75,30.09,29.55,12,1,0,0.01
2014-9-22,74.0,64.7,49.3,65.0,53.2,39.0,92,69,43,30.08,29.54,12,3,0,0.00
2014-9-23,67.9,54.5,42.3,49.0,43.8,38.0,88,69,45,30.41,30.09,6,1,0,0.00
2014-9-24,69.9,58.0,47.6,56.0,50.5,45.0,91,77,52,30.59,30.41,7,1,0,0.00
2014-9-25,60.0,55.9,50.4,56.0,52.5,48.0,91,88,84,30.52,30.20,8,2,0,0.34
2014-9-26,72.6,61.9,53.7,57.0,53.0,45.0,92,75,38,30.20,30.12,12,3,0,0.02
2014-9-27,80.3,65.8,53.6,62.0,56.3,50.0,91,74,47,30.17,30.11,4,0,0,0.00
2014-9-28,82.0,67.2,54.5,65.0,59.6,52.0,92,78,56,30.15,29.98,11,1,0,0.00
2014-9-29,73.1,65.3,59.8,66.0,61.0,57.0,92,86,74,29.98,29.91,10,1,0,0.00
2014-9-30,59.6,57.1,55.8,57.0,54.6,53.0,92,91,91,30.02,29.95,12,4,0,0.11
2014-10-1,58.8,57.9,56.5,57.0,55.7,54.0,93,92,92,30.06,29.97,14,4,0,0.57
2014-10-2,58.1,55.3,48.9,56.0,52.5,46.0,93,90,84,30.13,30.04,15,5,0,0.22
2014-10-3,57.7,52.9,47.3,53.0,49.7,45.0,92,88,81,30.11,29.89,6,2,0,0.01
2014-10-4,65.9,59.3,53.7,64.0,56.9,52.0,93,91,86,29.88,29.51,12,1,0,0.14
2014-10-5,62.0,53.3,45.5,60.0,44.8,38.0,92,75,44,29.95,29.55,12,1,0,0.01
2014-10-6,64.7,53.4,40.7,52.0,44.6,37.0,89,74,47,30.14,29.95,13,1,0,0.00
2014-10-7,71.7,64.5,55.5,63.0,58.9,52.0,92,82,61,30.14,29.96,12,2,0,0.00
2014-10-8,71.8,65.6,56.2,64.0,57.6,48.0,91,76,51,29.97,29.71,15,4,0,0.10
2014-10-9,64.5,55.7,47.1,48.0,43.6,38.0,86,66,42,29.98,29.86,9,1,0,0.00
2014-10-10,62.2,52.8,43.3,45.0,41.9,39.0,84,68,50,30.12,29.98,8,1,0,0.00
2014-10-11,50.8,47.4,42.4,48.0,44.1,40.0,91,88,79,30.12,30.03,7,1,0,0.39
2014-10-12,59.2,48.7,40.7,45.0,40.6,38.0,92,76,47,30.30,30.11,9,1,0,0.01
2014-10-13,64.0,53.2,38.5,55.0,47.0,36.0,95,80,62,30.36,30.26,11,1,0,0.00
2014-10-14,73.2,66.5,60.9,65.0,61.1,55.0,90,83,72,30.26,30.14,14,2,0,0.00
2014-10-15,77.6,70.8,65.2,67.0,65.0,62.0,89,82,68,30.15,29.95,10,2,0,0.00
2014-10-16,72.0,68.0,61.5,69.0,65.2,59.0,92,90,88,29.95,29.67,13,2,0,1.19
2014-10-17,70.9,62.8,59.6,61.0,57.9,54.0,93,85,61,29.69,29.60,11,2,0,0.01
2014-10-18,69.3,62.0,55.7,62.0,56.8,49.0,93,83,69,29.67,29.48,10,2,0,0.01
2014-10-19,56.2,50.8,41.4,49.0,39.4,29.0,86,66,47,29.94,29.60,11,3,0,0.00
2014-10-20,54.9,44.4,32.7,42.0,34.3,27.0,85,69,47,30.08,29.95,9,1,0,0.00
2014-10-21,63.5,54.5,44.9,57.0,50.2,41.0,92,85,73,29.99,29.87,6,1,0,0.00
2014-10-22,56.1,53.6,51.4,54.0,51.3,49.0,93,91,90,29.95,29.70,24,7,0,1.26
2014-10-23,56.4,53.4,50.8,54.0,51.1,49.0,93,91,88,29.72,29.51,19,8,0,0.87
2014-10-24,53.6,50.6,48.9,49.0,46.6,43.0,92,86,78,29.73,29.61,13,3,0,0.04
2014-10-25,65.0,52.5,42.1,50.0,43.9,39.0,90,74,44,29.77,29.50,10,1,0,0.00
2014-10-26,57.1,52.8,43.9,50.0,42.5,38.0,81,69,53,29.72,29.44,15,2,0,0.00
2014-10-27,61.5,50.9,43.2,43.0,40.2,38.0,85,69,46,30.02,29.72,10,2,0,0.00
2014-10-28,67.7,54.4,40.7,58.0,49.1,37.0,91,82,63,30.06,29.92,10,1,0,0.00
2014-10-29,70.5,62.8,52.6,63.0,57.4,47.0,92,83,63,29.93,29.75,10,2,0,0.06
2014-10-30,60.2,49.6,42.0,49.0,40.4,35.0,90,72,44,29.98,29.87,7,1,0,0.01
2014-10-31,54.1,47.1,39.6,44.0,39.9,34.0,88,76,66,30.02,29.90,11,2,0,0.00
2014-11-1,48.6,45.7,40.6,46.0,40.7,37.0,91,83,69,29.90,29.70,19,7,0,0.56
2014-11-2,40.4,37.5,33.3,38.0,30.4,18.0,91,78,43,29.84,29.56,24,8,0,0.50
2014-11-3,51.0,41.8,30.5,34.0,23.0,15.0,67,49,26,30.06,29.84,13,2,0,0.01
2014-11-4,62.7,51.5,40.1,49.0,36.3,28.0,80,59,34,30.13,30.01,9,1,0,0.00
2014-11-5,66.8,58.1,48.1,53.0,46.4,39.0,84,67,45,30.11,29.96,10,2,0,0.00
2014-11-6,50.7,48.8,45.7,48.0,45.0,39.0,92,87,76,30.11,29.48,4,0,0,0.44
2014-11-7,49.5,45.3,38.3,47.0,38.3,28.0,92,77,61,29.79,29.44,18,3,0,0.00
2014-11-8,46.2,39.2,31.5,35.0,28.7,24.0,80,67,47,29.97,29.79,10,1,0,0.00
2014-11-9,56.2,47.7,39.9,41.0,37.1,33.0,80,68,51,29.99,29.86,9,1,0,0.00
2014-11-10,58.0,44.6,31.7,39.0,34.5,28.0,90,70,42,30.20,30.00,4,0,0,0.00
2014-11-11,61.4,51.1,38.5,54.0,46.7,35.0,92,85,76,30.18,29.96,6,0,0,0.00
2014-11-12,59.1,52.2,43.3,57.0,48.3,34.0,93,87,58,29.99,29.84,9,0,0,0.01
2014-11-13,51.1,43.0,32.8,35.0,30.6,26.0,81,63,41,30.07,29.93,6,1,0,0.00
2014-11-14,43.2,35.8,30.4,34.0,27.7,21.0,91,74,50,30.09,29.88,10,2,0,0.22
2014-11-15,38.2,30.9,25.0,23.0,19.6,17.0,82,64,46,30.34,30.09,12,1,0,0.00
2014-11-16,42.0,34.7,24.9,34.0,25.4,17.0,84,70,49,30.39,30.11,1,0,0,0.00
2014-11-17,58.5,45.7,37.3,57.0,43.3,33.0,93,91,84,30.12,29.41,14,1,0,1.50
2014-11-18,51.0,36.8,25.3,49.0,24.5,8.0,92,63,43,29.95,29.44,10,3,0,0.01
2014-11-19,35.5,28.0,20.8,23.0,12.0,7.0,70,52,37,30.16,29.95,12,2,0,0.00
2014-11-20,48.3,38.5,29.3,28.0,24.2,20.0,71,58,38,30.07,29.75,13,3,0,0.00
2014-11-21,35.2,29.4,24.8,20.0,13.2,9.0,70,52,38,30.42,29.91,15,3,0,0.00
2014-11-22,44.0,33.7,21.9,29.0,19.5,11.0,68,57,43,30.44,30.08,19,5,0,0.00
2014-11-23,57.2,47.0,41.3,39.0,33.8,29.0,87,62,46,30.15,30.07,13,3,0,0.00
2014-11-24,63.6,57.4,42.6,62.0,54.8,39.0,93,91,88,30.07,29.62,23,7,0,0.83
2014-11-25,62.6,55.7,45.9,57.0,43.9,31.0,92,68,40,30.11,29.71,11,3,0,0.00
2014-11-26,46.1,40.8,33.4,39.0,34.2,30.0,91,79,57,30.18,29.58,12,1,0,1.79
2014-11-27,40.2,34.9,30.6,34.0,30.8,28.0,90,85,71,29.99,29.63,10,1,0,0.05
2014-11-28,35.7,30.6,24.2,28.0,23.5,17.0,90,76,58,30.21,29.96,13,3,0,0.01
2014-11-29,34.2,27.4,19.6,24.0,18.1,15.0,83,69,49,30.35,30.21,4,1,0,0.00
2014-11-30,55.0,47.0,31.1,46.0,40.0,25.0,88,77,62,30.25,30.04,23,5,0,0.00
2014-12-1,64.3,53.4,43.0,51.0,44.1,31.0,83,71,61,30.39,30.02,14,5,0,0.00
2014-12-2,42.2,36.8,34.1,36.0,27.1,21.0,90,69,57,30.66,30.35,16,5,0,0.07
2014-12-3,50.6,45.1,38.7,48.0,42.1,31.0,92,89,69,30.34,29.89,19,4,0,0.18
2014-12-4,43.1,36.5,28.3,30.0,23.4,20.0,74,60,42,30.52,30.08,10,2,0,0.00
2014-12-5,43.6,34.7,24.9,36.0,25.2,15.0,87,69,57,30.65,30.40,7,2,0,0.10
2014-12-6,48.7,44.0,38.6,47.0,41.8,36.0,95,91,87,30.39,30.11,10,2,0,1.01
2014-12-7,38.6,33.3,24.0,37.0,22.1,1.0,92,66,33,30.63,30.16,19,9,0,0.18
2014-12-8,28.5,25.2,21.6,26.0,18.5,10.0,89,76,57,30.71,30.44,13,4,0,0.00
2014-12-9,54.4,44.8,28.7,53.0,42.7,26.0,93,92,89,30.43,29.45,23,6,0,2.84
2014-12-10,45.1,42.0,38.3,43.0,40.2,37.0,93,93,92,29.53,29.41,9,1,0,0.54
2014-12-11,38.1,33.7,30.5,36.0,30.7,26.0,93,88,78,29.80,29.44,10,4,0,0.03
2014-12-12,38.3,32.2,26.0,29.0,26.5,23.0,89,79,67,29.88,29.80,11,2,0,0.00
2014-12-13,40.6,34.0,29.1,29.0,26.8,24.0,87,75,63,29.86,29.77,10,2,0,0.00
2014-12-14,44.5,34.8,28.4,32.0,27.8,24.0,86,76,60,29.90,29.77,9,1,0,0.00
2014-12-15,42.3,33.7,28.0,31.0,27.7,25.0,90,79,64,30.13,29.89,4,0,0,0.01
2014-12-16,41.7,36.9,29.4,39.0,33.6,26.0,89,88,84,30.14,29.88,3,0,0,0.00
2014-12-17,48.7,44.2,40.6,45.0,40.2,33.0,92,86,74,29.88,29.67,11,3,0,0.39
2014-12-18,43.0,38.7,33.8,33.0,30.0,27.0,84,71,61,29.86,29.72,21,5,0,0.01
2014-12-19,35.9,33.1,27.6,28.0,24.7,20.0,83,72,65,30.13,29.86,9,2,0,0.00
2014-12-20,35.0,31.3,26.4,31.0,25.5,20.0,90,79,72,30.27,30.13,9,2,0,0.01
2014-12-21,34.7,33.4,32.7,32.0,31.1,30.0,92,91,90,30.33,30.24,9,2,0,0.09
2014-12-22,44.5,38.0,32.4,40.0,34.7,29.0,90,88,80,30.37,30.24,5,1,0,0.02
2014-12-23,47.1,44.4,39.0,45.0,42.2,36.0,93,92,90,30.25,30.09,14,4,0,0.22
2014-12-24,63.1,49.9,44.2,61.0,48.2,42.0,95,93,92,30.09,29.56,20,4,0,0.58
2014-12-25,61.2,51.8,40.4,60.0,43.9,30.0,94,76,50,29.98,29.49,17,6,0,0.19
2014-12-26,48.7,40.8,35.6,34.0,31.3,29.0,81,69,55,30.17,29.98,12,3,0,0.00
2014-12-27,52.0,40.9,31.9,36.0,32.4,28.0,85,73,54,30.22,30.04,9,2,0,0.00
2014-12-28,51.3,45.5,39.1,45.0,38.8,29.0,87,78,63,30.03,29.76,13,4,0,0.04
2014-12-29,41.7,35.6,29.3,28.0,23.1,16.0,79,62,45,30.19,29.98,11,2,0,0.00
2014-12-30,29.4,24.8,18.2,16.0,8.3,0.0,66,51,34,30.34,30.20,10,1,0,0.00
2014-12-31,30.2,21.6,15.1,13.0,8.4,6.0,72,58,41,30.31,30.13,10,1,0,0.00
2015-1-1,35.0,27.8,20.5,21.0,11.9,7.0,62,52,37,30.12,29.93,17,4,0,0.00
2015-1-2,41.5,34.3,28.5,21.0,19.1,17.0,64,55,42,30.43,29.95,15,4,0,0.00